sat.trackr.live / text

‹ back to catalog

ETIHAD-SAT

NORAD 63226 · 2025-052S

PAYLOAD ACTIVE UNKNOWN

§ Identity

Operator
Country
UAE
Launch date
2025-03-15
Launch site
AFWTR
Launch vehicle
Mass (kg)
RCS (m²)

External: N2YO · Heavens-Above · Gunter

§ Orbital elements

Epoch: 2026-05-25T03:36:30.659040Z

Period
94.62 min
Inclination
97.3991°
Eccentricity
0.0004146
Mean motion
15.21890171 rev/d
Perigee alt
497.3 km
Apogee alt
503.0 km
Semi-major
6,878.3 km
B*
1.6103e-4
RAAN
38.0665°
Arg perigee
204.9377°
Mean anomaly
155.1659°
Rev number
6,633

§ Raw data

ETIHAD-SAT1 63226U 25052S   26145.15035485  .00003596  00000+0  16103-3 0  99982 63226  97.3991  38.0665 0004146 204.9377 155.1659 15.21890171 66339

JSON: /api/v1/satellites/63226 · /tle

For live sub-satellite position, see the globe view (requires WebGL).

§ Visibility from observer

Set your observer location to see the next 7 days of passes ≥ 10°. The values pass through the URL so the page stays shareable.

No JS? Fill the form by hand. The geolocation button needs JavaScript.